Location: ???? ??
(36.0534°N, 43.5630°E)
Time: 23:27:01
(UTC+00:00)

Cosmos 2237 Rocket - Pass Details

Date: 18 September 2019
Orbit: 833 x 851 km, 71.0° (Epoch: 17 October)

Event Time Altitude Azimuth Distance (km) Brightness Sun altitude
Rises 16:19:59 0° 350° (N) 3,421 5.7 -15.0°
Reaches altitude 10° 16:22:51 10° 2° (N) 2,483 4.8 -15.5°
Maximum altitude 16:27:35 26° 59° (ENE) 1,602 3.3 -16.4°
Enters shadow 16:28:58 24° 82° (E) 1,693 3.2 -16.7°
